Regional Weather Roundup
Issued by NWS

Home | Current Version | Previous Version | Text Only | Print | Product List | Glossary Off
Versions: 1 2 3 4 5 6 7 8 9 10 11 12 13 14 15 16 17 18 19 20 21 22 23 24 25 26 27 28 29 30 31 32 33 34 35 36 37 38 39 40 41 42 43 44 45 46 47 48 49 50

000
ASUS44 KFWD 251615
RWRTX
NORTH TEXAS HOURLY WEATHER ROUNDUP
NATIONAL WEATHER SERVICE FORT WORTH TX
1100 AM CDT TUE APR 25 2017

NOTE: "FAIR" INDICATES FEW OR NO CLOUDS BELOW 12,000 FEET WITH NO
SIGNIFICANT WEATHER AND/OR OBSTRUCTIONS TO VISIBILITY.

TXZ118-119-251700-
DALLAS/FORT WORTH METROPLEX

CITY           SKY/WX    TMP DP  RH WIND       PRES   REMARKS
DFW AIRPORT    MOSUNNY   77  62  59 S21G33    29.52F
DALLAS LOVE    MOSUNNY   76  62  62 S18G25    29.55F
FTW MEACHAM    SUNNY     77  63  61 S17G24    29.53S
DAL-EXECUTIVE  SUNNY     75  64  68 S15G23    29.55F
FTW-ALLIANCE   MOSUNNY   76  61  59 S13G29    29.52S
FTW-NAS-JRB    PTSUNNY   77  61  57 S22G28    29.54
FTW-SPINKS     SUNNY     75  63  64 S21G28    29.57S
ARLINGTON      SUNNY     74  62  66 S17       29.55F
GRAND PRAIRIE  SUNNY     73  61  64 S15G22    29.57F
ADDISON        SUNNY     75  61  60 S15G29    29.55F
MESQUITE       PTSUNNY   72  63  73 S23G35      N/A
LANCASTER      PTSUNNY   70  63  76 S18G33    29.60S
$$

TXZ091>094-102>105-117-120-121-131>134-251700-
NORTH CENTRAL TEXAS

CITY           SKY/WX    TMP DP  RH WIND       PRES   REMARKS
SHRMAN/DENISON SUNNY     74  61  64 S17       29.54S
GAINESVILLE    SUNNY     74  59  61 SW17G28   29.53S
BOWIE          SUNNY     77  60  55 S13G18    29.49S
BRIDGEPORT     SUNNY     77  59  55 S10       29.52S
DECATUR        SUNNY     75  58  55 S14G21    29.52S
DENTON         SUNNY     76  62  62 S22G29    29.52S
MCKINNEY       SUNNY     74  63  68 S22G32    29.54S
BONHAM         MOSUNNY   70  61  73 S20G26    29.55F
GREENVILLE     PTSUNNY   73  63  68 S24       29.59S
ROCKWALL       PTSUNNY   72  63  72 S24G38    29.58S
TERRELL        PTSUNNY   72  62  71 S23G35    29.60S
WAXAHACHIE     SUNNY     73  64  73 S18G26    29.58S
CLEBURNE       SUNNY     73  66  78 S20       29.58S
GRANBURY       SUNNY     78  61  55 S14G20    29.55F
$$

TXZ083>090-098>101-113>116-127>130-139>142-154-155-251700-
WESTERN NORTH TEXAS

CITY           SKY/WX    TMP DP  RH WIND       PRES   REMARKS
WICHITA FALLS  PTSUNNY   80  54  40 SW22      29.43S
WF-KICKAPOO    MOSUNNY   80  54  40 SW10G23   29.46S
VERNON         MOSUNNY   82  43  25 SW14      29.45S
ABILENE        CLOUDY    77  56  48 SW13      29.55R
ABILENE-DYESS  MOSUNNY   83  50  31 W17G26    29.52S
GRAHAM         CLOUDY    82  60  46 SW7       29.48F
BRECKENRIDGE   MOSUNNY   82  54  38 SW13G18   29.51S HAZE
CISCO          CLOUDY    77  57  50 SW18      29.55S
RANGER         MOSUNNY   76  59  54 SW12G23   29.55R
MINERAL WELLS  SUNNY     81  59  47 S15G22    29.50F
STEPHENVILLE   SUNNY     78  59  52 S9G20     29.58S
COMANCHE       SUNNY     77  60  56 S22G29    29.56S
BROWNWOOD      SUNNY     79  59  50 S12G17    29.58F
COLEMAN        PTSUNNY   76  58  54 S9        29.58S
$$

TXZ143>147-156>162-174-175-251700-
CENTRAL TEXAS

CITY           SKY/WX    TMP DP  RH WIND       PRES   REMARKS
WACO           CLOUDY    72  65  78 S17G25    29.61F
HILLSBORO      PTSUNNY   72  65  78 S23G32    29.59F
CORSICANA      CLOUDY    72  65  78 S22G32    29.64F
MEXIA          CLOUDY    70  64  80 S17G33    29.64S
HEARNE         CLOUDY    74  68  82 SE14      29.67F
CAMERON        CLOUDY    73  66  78 S13       29.65S
TEMPLE         CLOUDY    70  65  84 S20G25    29.64S
KILLEEN        MOSUNNY   74  64  69 S16       29.61F
KILLEEN-SKYLRK PTSUNNY   74  64  71 S17       29.63F
FORT HOOD      PTSUNNY   74  64  70 S15G22    29.60R
GATESVILLE     SUNNY     75  63  64 S14       29.63F
HAMILTON       SUNNY     77  62  59 S18       29.60S
LAMPASAS       SUNNY     76  67  74 S9G16     29.62S
$$

TXZ095>097-106>112-122>126-135>138-148>153-164>167-251700-
EAST TEXAS

CITY           SKY/WX    TMP DP  RH WIND       PRES   REMARKS
PARIS          CLOUDY    68  61  77 S17G23    29.61S
SULPHUR SPRNGS CLOUDY    69  62  77 S16G26    29.63S
MOUNT PLEASANT PTSUNNY   70  60  71 S18G29    29.66F
GILMER         CLOUDY    69  61  76 S16G25    29.66F
MINEOLA        CLOUDY    70  63  78 S14G21    29.64S
TYLER          CLOUDY    72  63  73 S21       29.65F
LONGVIEW       PTSUNNY   72  63  73 S15       29.68F
MARSHALL       CLOUDY    70  61  72 S8        29.72S
ATHENS         CLOUDY    68  61  77 S12G21    29.63F
PALESTINE      CLOUDY    71  65  81 S13       29.69S
JACKSONVILLE   PTSUNNY   72  63  75 S9        29.70S
HENDERSON      CLOUDY    72  61  67 S12G24    29.71R
CENTER         PTSUNNY   77  64  64 S12G20    29.72S
NACOGDOCHES    CLOUDY    73  63  68 S14       29.69S
LUFKIN         PTSUNNY   74  63  68 S16G25    29.71R
$$

SUPPLEMENTAL OBSERVATIONS (CENTRAL)

CITY           SKY/WX    TMP DP  RH WIND       PRES   REMARKS
DENISON DAM      N/A     73  59  60 S9          N/A
CADDO GRASSLND   N/A     72  61  68 S18G26      N/A
PAT MAYSE LAKE   N/A     68  63  83 SE18        N/A
GREENVILLE       N/A     70  63  78 S17G26      N/A
CEDAR HILL       N/A     75  63  64 S10G23      N/A
ATHENS           N/A     70  63  78 S14G23      N/A
LAKE LIMESTONE   N/A     73  64  73 S13         N/A
MCGREGOR         N/A     73  63  68 S17G26      N/A
TEMPLE           N/A     70  64  83 S16G24      N/A
$$

SUPPLEMENTAL OBSERVATIONS (WEST)

CITY           SKY/WX    TMP DP  RH WIND       PRES   REMARKS
MILLERS CREEK    N/A     82  50  32 SW14        N/A
POSSUM KINGDOM   N/A     82  55  39 SW15G23     N/A
LBJ GRASSLAND    N/A     77  59  53 S12         N/A
GRANBURY         N/A     79  61  53 S16G23      N/A
COMANCHE         N/A     79  59  50 S18G26      N/A
HAMBY            N/A     81  54  39 SW13G22     N/A
IVIE RESERVOIR   N/A     82  57  42 S12         N/A
COLORADO BEND    N/A     75  63  64 SW10        N/A
$$

SUPPLEMENTAL OBSERVATIONS (EAST)

CITY           SKY/WX    TMP DP  RH WIND       PRES   REMARKS
CLARKSVILLE      N/A     66  59  77 S17G26      N/A
TEXARKANA        N/A    N/A N/A N/A S8G17       N/A
LINDEN           N/A    N/A N/A N/A S9G18       N/A
CADDO LAKE       N/A     75  61  60 S6G14       N/A
GILMER           N/A     72  61  68 S13G23      N/A
HENDERSON        N/A    N/A N/A N/A S13G24      N/A
LUFKIN           N/A     75  63  64 MISG        N/A
N SABINE NF      N/A     75  61  60 MISG        N/A
S SABINE NF      N/A     79  63  57 S7          N/A
$$

SUPPLEMENTAL OBSERVATIONS ARE A COLLECTION OF AUTOMATED INSTRUMENTS
THAT ARE MAINTAINED BY A VARIETY OF FEDERAL AND STATE AGENCIES.
CERTAIN ELEMENTS...SUCH AS HUMIDITY VALUES AND SUSTAINED WIND
SPEEDS...MAY BE APPROXIMATED.





USA.gov is the U.S. government's official web portal to all federal, state and local government web resources and services.